QPF
0.00 0.00 0.00 0.00 0.00 0.01 0.00 0.00 0.00 0.00 0.00 0.00 0.00 0.00 0.00 0.00 0.00 0.00 0.01 0.01 0.01 0.00 0.00 0.01 0.01 0.01 0.01 0.01 0.01 0.01 0.01 0.01 0.01 0.01 0.01 0.01 0.01 0.01 0.01 0.01 0.01 0.01 0.01 0.01 0.01 0.00 0.00 0.00 0.00
0.00 0.00 0.00 0.01 0.01 0.01 0.00 0.00 0.00 0.00 0.00 0.00 0.00 0.00 0.00 0.00 0.00 0.01 0.01 0.01 0.01 0.00 0.00 0.01 0.01 0.01 0.01 0.01 0.01 0.01 0.01 0.01 0.01 0.01 0.02 0.02 0.01 0.01 0.01 0.01 0.01 0.01 0.01 0.01 0.01 0.00 0.00 0.00 0.00
0.00 0.00 0.01 0.01 0.01 0.00 0.00 0.00 0.00 0.00 0.00 0.00 0.00 0.00 0.00 0.00 0.01 0.01 0.01 0.01 0.01 0.01 0.00 0.01 0.01 0.01 0.01 0.01 0.01 0.01 0.01 0.01 0.01 0.01 0.02 0.02 0.01 0.01 0.01 0.01 0.01 0.01 0.00 0.00 0.00 0.00 0.00 0.00 0.00
0.00 0.01 0.01 0.01 0.01 0.00 0.00 0.00 0.00 0.00 0.00 0.00 0.00 0.00 0.00 0.00 0.00 0.01 0.01 0.00 0.00 0.01 0.00 0.01 0.01 0.01 0.01 0.01 0.01 0.01 0.01 0.01 0.01 0.01 0.02 0.02 0.02 0.01 0.01 0.00 0.01 0.01 0.00 0.00 0.00 0.00 0.00 0.00 0.00
0.01 0.01 0.01 0.01 0.01 0.00 0.00 0.00 0.00 0.00 0.00 0.00 0.00 0.00 0.00 0.00 0.01 0.01 0.01 0.00 0.01 0.01 0.01 0.01 0.01 0.01 0.02 0.02 0.02 0.01 0.01 0.01 0.02 0.02 0.02 0.02 0.01 0.01 0.00 0.00 0.01 0.01 0.00 0.00 0.00 0.00 0.00 0.00 0.00
0.01 0.01 0.01 0.00 0.00 0.00 0.00 0.00 0.00 0.00 0.00 0.00 0.00 0.00 0.00 0.01 0.01 0.01 0.01 0.01 0.01 0.01 0.01 0.01 0.01 0.01 0.02 0.03 0.03 0.02 0.02 0.02 0.02 0.02 0.01 0.02 0.02 0.01 0.01 0.01 0.00 0.00 0.00 0.00 0.00 0.00 0.00 0.00 0.00
0.01 0.01 0.00 0.00 0.00 0.00 0.00 0.00 0.00 0.00 0.00 0.00 0.00 0.00 0.01 0.02 0.02 0.01 0.01 0.01 0.01 0.01 0.01 0.02 0.01 0.01 0.03 0.03 0.03 0.03 0.03 0.02 0.02 0.02 0.02 0.02 0.03 0.02 0.02 0.01 0.01 0.00 0.01 0.01 0.00 0.00 0.00 0.00 0.00
0.01 0.01 0.00 0.00 0.00 0.00 0.00 0.00 0.00 0.00 0.00 0.00 0.00 0.00 0.01 0.03 0.03 0.02 0.02 0.02 0.01 0.01 0.01 0.01 0.02 0.02 0.02 0.03 0.03 0.02 0.02 0.02 0.02 0.02 0.02 0.02 0.02 0.02 0.01 0.01 0.01 0.01 0.01 0.00 0.01 0.01 0.01 0.00 0.00
0.02 0.01 0.00 0.00 0.00 0.00 0.00 0.00 0.00 0.00 0.00 0.01 0.01 0.00 0.01 0.03 0.03 0.02 0.02 0.02 0.01 0.01 0.01 0.01 0.01 0.02 0.02 0.02 0.02 0.02 0.02 0.02 0.02 0.01 0.01 0.01 0.01 0.01 0.01 0.01 0.01 0.01 0.01 0.01 0.01 0.01 0.01 0.00 0.00
0.03 0.01 0.00 0.00 0.00 0.00 0.01 0.01 0.00 0.00 0.00 0.01 0.01 0.01 0.02 0.04 0.04 0.03 0.02 0.01 0.01 0.01 0.01 0.01 0.01 0.01 0.02 0.02 0.01 0.01 0.02 0.02 0.01 0.01 0.01 0.01 0.01 0.01 0.01 0.02 0.03 0.02 0.01 0.01 0.02 0.02 0.01 0.00 0.00
0.02 0.01 0.00 0.00 0.00 0.00 0.01 0.01 0.00 0.00 0.01 0.01 0.01 0.01 0.02 0.04 0.04 0.03 0.02 0.02 0.01 0.01 0.01 0.01 0.01 0.01 0.02 0.02 0.02 0.03 0.02 0.02 0.01 0.00 0.01 0.01 0.01 0.01 0.02 0.03 0.05 0.05 0.03 0.02 0.04 0.04 0.01 0.00 0.00
0.01 0.00 0.00 0.00 0.00 0.00 0.00 0.00 0.00 0.00 0.01 0.01 0.01 0.02 0.02 0.03 0.04 0.03 0.03 0.02 0.02 0.03 0.02 0.01 0.01 0.01 0.01 0.02 0.02 0.03 0.03 0.02 0.02 0.01 0.01 0.02 0.02 0.01 0.01 0.02 0.02 0.04 0.05 0.03 0.02 0.02 0.01 0.01 0.00
0.01 0.00 0.00 0.00 0.00 0.00 0.00 0.00 0.01 0.00 0.01 0.01 0.02 0.02 0.03 0.04 0.05 0.05 0.05 0.04 0.03 0.03 0.02 0.02 0.02 0.02 0.01 0.01 0.02 0.02 0.03 0.02 0.02 0.02 0.02 0.02 0.02 0.01 0.01 0.01 0.01 0.03 0.04 0.04 0.04 0.03 0.02 0.01 0.00
0.01 0.01 0.01 0.00 0.00 0.00 0.00 0.00 0.01 0.01 0.01 0.01 0.03 0.03 0.03 0.04 0.05 0.05 0.04 0.04 0.03 0.03 0.03 0.03 0.04 0.04 0.03 0.01 0.01 0.02 0.02 0.02 0.02 0.02 0.03 0.03 0.03 0.03 0.02 0.02 0.02 0.03 0.04 0.04 0.04 0.04 0.03 0.02 0.01
0.02 0.02 0.01 0.01 0.00 0.00 0.00 0.00 0.01 0.01 0.01 0.01 0.02 0.02 0.02 0.04 0.05 0.04 0.04 0.05 0.04 0.04 0.04 0.04 0.04 0.04 0.04 0.02 0.01 0.01 0.01 0.01 0.01 0.01 0.01 0.02 0.03 0.04 0.04 0.03 0.04 0.03 0.03 0.03 0.02 0.02 0.03 0.02 0.02
0.03 0.03 0.02 0.01 0.00 0.00 0.00 0.00 0.00 0.01 0.01 0.01 0.01 0.01 0.02 0.03 0.04 0.04 0.04 0.06 0.07 0.07 0.05 0.05 0.04 0.04 0.04 0.03 0.03 0.02 0.01 0.01 0.01 0.01 0.01 0.01 0.02 0.04 0.05 0.05 0.05 0.04 0.04 0.03 0.03 0.02 0.02 0.02 0.02
0.04 0.04 0.02 0.01 0.01 0.00 0.00 0.00 0.00 0.01 0.01 0.01 0.01 0.01 0.01 0.01 0.03 0.03 0.04 0.06 0.07 0.07 0.06 0.06 0.05 0.04 0.03 0.03 0.03 0.03 0.02 0.02 0.01 0.01 0.01 0.01 0.02 0.03 0.04 0.06 0.06 0.05 0.04 0.04 0.04 0.02 0.01 0.01 0.01
0.03 0.03 0.02 0.01 0.01 0.00 0.00 0.00 0.00 0.01 0.02 0.01 0.01 0.01 0.01 0.01 0.02 0.03 0.03 0.04 0.06 0.08 0.08 0.07 0.05 0.04 0.03 0.02 0.02 0.02 0.02 0.02 0.01 0.01 0.01 0.01 0.01 0.02 0.03 0.04 0.05 0.05 0.04 0.05 0.04 0.02 0.01 0.00 0.00
0.02 0.02 0.02 0.01 0.01 0.00 0.00 0.00 0.00 0.01 0.02 0.01 0.01 0.01 0.00 0.01 0.01 0.03 0.04 0.04 0.05 0.07 0.08 0.06 0.04 0.02 0.02 0.02 0.02 0.02 0.01 0.01 0.01 0.01 0.01 0.01 0.01 0.01 0.02 0.02 0.02 0.03 0.02 0.03 0.03 0.03 0.01 0.01 0.00
0.04 0.03 0.02 0.01 0.01 0.01 0.00 0.00 0.00 0.00 0.01 0.01 0.00 0.00 0.01 0.01 0.01 0.03 0.04 0.05 0.05 0.04 0.05 0.04 0.03 0.02 0.02 0.02 0.02 0.02 0.01 0.01 0.01 0.01 0.01 0.01 0.01 0.01 0.02 0.02 0.02 0.02 0.01 0.01 0.01 0.01 0.01 0.01 0.00
0.06 0.04 0.02 0.02 0.02 0.02 0.01 0.01 0.00 0.00 0.01 0.01 0.01 0.01 0.01 0.00 0.01 0.02 0.03 0.04 0.05 0.04 0.03 0.03 0.03 0.02 0.02 0.02 0.02 0.01 0.01 0.01 0.00 0.00 0.00 0.00 0.00 0.01 0.01 0.01 0.02 0.02 0.01 0.00 0.00 0.00 0.00 0.00 0.00
0.08 0.05 0.03 0.03 0.03 0.03 0.01 0.01 0.01 0.00 0.00 0.01 0.01 0.01 0.01 0.00 0.01 0.01 0.01 0.03 0.04 0.04 0.03 0.02 0.03 0.02 0.02 0.02 0.02 0.01 0.01 0.01 0.00 0.00 0.00 0.00 0.00 0.00 0.01 0.01 0.01 0.01 0.01 0.00 0.00 0.00 0.00 0.00 0.00
0.07 0.06 0.05 0.05 0.05 0.04 0.02 0.01 0.00 0.00 0.00 0.00 0.00 0.00 0.00 0.01 0.00 0.00 0.01 0.02 0.03 0.03 0.02 0.02 0.02 0.02 0.02 0.02 0.02 0.01 0.01 0.00 0.00 0.00 0.00 0.00 0.00 0.01 0.01 0.01 0.00 0.00 0.01 0.01 0.01 0.00 0.00 0.00 0.00
0.05 0.07 0.07 0.07 0.08 0.10 0.03 0.01 0.01 0.00 0.00 0.00 0.00 0.00 0.00 0.01 0.01 0.01 0.01 0.02 0.02 0.02 0.02 0.02 0.02 0.02 0.02 0.02 0.02 0.02 0.01 0.01 0.00 0.00 0.00 0.00 0.00 0.01 0.01 0.01 0.01 0.01 0.00 0.00 0.00 0.00 0.00 0.01 0.00
0.07 0.12 0.18 0.18 0.17 0.10 0.02 0.01 0.01 0.00 0.00 0.00 0.00 0.00 0.00 0.01 0.01 0.01 0.01 0.02 0.02 0.02 0.02 0.02 0.02 0.01 0.01 0.02 0.01 0.01 0.01 0.02 0.01 0.00 0.00 0.00 0.00 0.00 0.01 0.01 0.01 0.01 0.01 0.00 0.00 0.00 0.00 0.00 0.00
0.07 0.11 0.13 0.13 0.09 0.04 0.02 0.01 0.01 0.00 0.00 0.00 0.00 0.00 0.01 0.01 0.01 0.01 0.01 0.01 0.01 0.02 0.02 0.01 0.01 0.01 0.01 0.01 0.01 0.01 0.02 0.01 0.01 0.01 0.01 0.00 0.00 0.00 0.00 0.01 0.01 0.00 0.00 0.01 0.00 0.00 0.00 0.00 0.00
0.08 0.10 0.08 0.08 0.05 0.03 0.03 0.02 0.02 0.00 0.00 0.00 0.00 0.00 0.00 0.01 0.01 0.02 0.01 0.01 0.01 0.02 0.02 0.01 0.01 0.02 0.02 0.01 0.01 0.01 0.01 0.01 0.01 0.00 0.00 0.00 0.00 0.00 0.00 0.00 0.00 0.01 0.01 0.00 0.00 0.00 0.00 0.00 0.00
0.06 0.08 0.10 0.10 0.07 0.05 0.03 0.02 0.02 0.01 0.00 0.00 0.00 0.00 0.00 0.00 0.01 0.02 0.02 0.01 0.01 0.01 0.02 0.02 0.01 0.02 0.03 0.02 0.01 0.01 0.01 0.01 0.01 0.00 0.00 0.00 0.00 0.00 0.00 0.00 0.00 0.00 0.01 0.01 0.01 0.00 0.00 0.00 0.00
0.03 0.06 0.11 0.10 0.06 0.05 0.04 0.03 0.02 0.01 0.00 0.00 0.00 0.00 0.00 0.00 0.01 0.01 0.02 0.02 0.02 0.01 0.01 0.02 0.02 0.02 0.02 0.02 0.02 0.01 0.01 0.01 0.00 0.00 0.00 0.00 0.00 0.00 0.00 0.00 0.00 0.00 0.00 0.00 0.01 0.01 0.00 0.00 0.00
0.03 0.03 0.05 0.09 0.06 0.03 0.02 0.03 0.02 0.01 0.01 0.00 0.00 0.00 0.00 0.00 0.00 0.01 0.01 0.02 0.02 0.02 0.02 0.02 0.03 0.02 0.02 0.02 0.02 0.02 0.01 0.01 0.00 0.00 0.00 0.00 0.00 0.00 0.00 0.00 0.00 0.01 0.00 0.00 0.00 0.00 0.01 0.01 0.00
MSLP
1015.45 1016.01 1016.69 1017.37 1017.88 1018.11 1018.01 1017.56 1016.83 1015.96 1015.07 1014.30 1013.74 1013.41 1013.28 1013.29 1013.34 1013.36 1013.31 1013.19 1013.04 1012.93 1012.93 1013.07 1013.38 1013.81 1014.32 1014.82 1015.26 1015.61 1015.84 1016.00 1016.12 1016.26 1016.43 1016.66 1016.92 1017.17 1017.38 1017.52 1017.58 1017.57 1017.53 1017.51 1017.54 1017.63 1017.79 1017.99 1018.20
1015.87 1016.49 1017.17 1017.75 1018.08 1018.08 1017.71 1017.00 1016.05 1015.00 1014.01 1013.21 1012.67 1012.41 1012.37 1012.47 1012.62 1012.72 1012.75 1012.71 1012.64 1012.61 1012.68 1012.91 1013.29 1013.79 1014.35 1014.90 1015.37 1015.75 1016.02 1016.22 1016.39 1016.56 1016.78 1017.04 1017.32 1017.58 1017.79 1017.91 1017.95 1017.94 1017.90 1017.88 1017.92 1018.03 1018.22 1018.45 1018.69
1016.26 1016.90 1017.52 1017.96 1018.10 1017.87 1017.26 1016.34 1015.23 1014.08 1013.07 1012.29 1011.82 1011.63 1011.69 1011.88 1012.10 1012.27 1012.37 1012.39 1012.38 1012.43 1012.58 1012.87 1013.31 1013.86 1014.44 1015.01 1015.49 1015.87 1016.16 1016.37 1016.57 1016.78 1017.03 1017.32 1017.62 1017.89 1018.10 1018.23 1018.27 1018.25 1018.22 1018.22 1018.28 1018.43 1018.65 1018.91 1019.18
1016.57 1017.19 1017.71 1017.99 1017.93 1017.50 1016.71 1015.64 1014.45 1013.30 1012.32 1011.62 1011.25 1011.16 1011.31 1011.57 1011.84 1012.07 1012.20 1012.27 1012.33 1012.44 1012.65 1013.01 1013.49 1014.05 1014.64 1015.18 1015.64 1016.00 1016.26 1016.47 1016.67 1016.90 1017.17 1017.49 1017.81 1018.11 1018.34 1018.48 1018.54 1018.54 1018.53 1018.56 1018.65 1018.83 1019.08 1019.38 1019.67
1016.79 1017.33 1017.71 1017.82 1017.58 1016.98 1016.07 1014.95 1013.76 1012.67 1011.80 1011.23 1010.98 1011.00 1011.22 1011.53 1011.84 1012.08 1012.25 1012.35 1012.47 1012.63 1012.90 1013.30 1013.80 1014.37 1014.93 1015.43 1015.84 1016.14 1016.35 1016.53 1016.72 1016.95 1017.24 1017.58 1017.94 1018.26 1018.53 1018.70 1018.79 1018.84 1018.87 1018.94 1019.07 1019.27 1019.55 1019.87 1020.19
1016.89 1017.30 1017.52 1017.44 1017.04 1016.32 1015.36 1014.26 1013.16 1012.20 1011.49 1011.07 1010.95 1011.07 1011.35 1011.68 1011.99 1012.24 1012.42 1012.56 1012.71 1012.93 1013.26 1013.69 1014.21 1014.77 1015.29 1015.74 1016.07 1016.31 1016.47 1016.61 1016.78 1017.01 1017.31 1017.67 1018.06 1018.43 1018.73 1018.95 1019.10 1019.19 1019.27 1019.38 1019.54 1019.77 1020.07 1020.39 1020.72
1016.85 1017.10 1017.13 1016.88 1016.35 1015.56 1014.60 1013.58 1012.62 1011.84 1011.31 1011.06 1011.06 1011.26 1011.57 1011.91 1012.20 1012.43 1012.61 1012.77 1012.96 1013.23 1013.61 1014.08 1014.62 1015.16 1015.66 1016.05 1016.34 1016.52 1016.64 1016.75 1016.90 1017.13 1017.45 1017.84 1018.26 1018.66 1019.01 1019.28 1019.48 1019.62 1019.75 1019.89 1020.08 1020.32 1020.62 1020.94 1021.26
1016.68 1016.75 1016.59 1016.18 1015.55 1014.73 1013.81 1012.91 1012.11 1011.52 1011.18 1011.08 1011.19 1011.44 1011.76 1012.07 1012.34 1012.55 1012.72 1012.89 1013.12 1013.44 1013.86 1014.37 1014.93 1015.47 1015.95 1016.32 1016.58 1016.74 1016.85 1016.95 1017.12 1017.37 1017.71 1018.12 1018.57 1019.01 1019.40 1019.71 1019.94 1020.13 1020.28 1020.45 1020.66 1020.91 1021.20 1021.50 1021.79
1016.39 1016.27 1015.94 1015.41 1014.70 1013.89 1013.05 1012.28 1011.65 1011.24 1011.05 1011.07 1011.25 1011.53 1011.83 1012.11 1012.34 1012.52 1012.68 1012.87 1013.13 1013.49 1013.95 1014.50 1015.08 1015.64 1016.12 1016.50 1016.76 1016.94 1017.07 1017.21 1017.41 1017.70 1018.07 1018.52 1018.99 1019.45 1019.86 1020.19 1020.46 1020.67 1020.85 1021.03 1021.25 1021.50 1021.78 1022.06 1022.33
1016.01 1015.73 1015.27 1014.64 1013.91 1013.13 1012.38 1011.74 1011.26 1010.99 1010.92 1011.02 1011.23 1011.50 1011.77 1012.00 1012.19 1012.34 1012.50 1012.70 1012.99 1013.38 1013.88 1014.45 1015.06 1015.63 1016.14 1016.54 1016.84 1017.07 1017.27 1017.48 1017.74 1018.08 1018.49 1018.96 1019.45 1019.92 1020.34 1020.68 1020.95 1021.18 1021.38 1021.58 1021.80 1022.05 1022.32 1022.60 1022.85
1015.57 1015.18 1014.64 1013.98 1013.26 1012.54 1011.89 1011.36 1011.00 1010.83 1010.82 1010.93 1011.13 1011.37 1011.59 1011.77 1011.92 1012.05 1012.21 1012.43 1012.74 1013.16 1013.68 1014.27 1014.88 1015.47 1016.00 1016.45 1016.82 1017.12 1017.40 1017.69 1018.03 1018.43 1018.89 1019.38 1019.87 1020.34 1020.75 1021.09 1021.37 1021.61 1021.82 1022.04 1022.27 1022.54 1022.83 1023.11 1023.36
1015.11 1014.67 1014.11 1013.48 1012.82 1012.18 1011.63 1011.20 1010.91 1010.78 1010.78 1010.87 1011.02 1011.18 1011.34 1011.47 1011.59 1011.72 1011.89 1012.12 1012.45 1012.89 1013.41 1014.00 1014.61 1015.21 1015.76 1016.25 1016.68 1017.06 1017.43 1017.81 1018.23 1018.68 1019.18 1019.68 1020.18 1020.64 1021.04 1021.38 1021.66 1021.91 1022.14 1022.38 1022.65 1022.95 1023.26 1023.57 1023.85
1014.67 1014.24 1013.73 1013.18 1012.61 1012.09 1011.63 1011.27 1011.02 1010.88 1010.83 1010.85 1010.91 1010.99 1011.08 1011.17 1011.26 1011.39 1011.57 1011.83 1012.18 1012.62 1013.14 1013.71 1014.31 1014.90 1015.46 1015.99 1016.47 1016.92 1017.36 1017.82 1018.30 1018.80 1019.31 1019.83 1020.32 1020.76 1021.16 1021.50 1021.79 1022.06 1022.33 1022.62 1022.93 1023.27 1023.63 1023.99 1024.31
1014.27 1013.91 1013.50 1013.07 1012.63 1012.22 1011.84 1011.53 1011.28 1011.09 1010.96 1010.87 1010.83 1010.81 1010.82 1010.86 1010.94 1011.08 1011.28 1011.57 1011.93 1012.37 1012.87 1013.43 1014.00 1014.58 1015.15 1015.69 1016.21 1016.72 1017.22 1017.72 1018.24 1018.76 1019.29 1019.79 1020.28 1020.72 1021.11 1021.46 1021.79 1022.10 1022.42 1022.76 1023.13 1023.53 1023.94 1024.35 1024.72
1013.92 1013.66 1013.37 1013.07 1012.76 1012.46 1012.16 1011.87 1011.59 1011.33 1011.10 1010.89 1010.72 1010.60 1010.54 1010.53 1010.60 1010.75 1010.97 1011.27 1011.65 1012.09 1012.59 1013.13 1013.69 1014.26 1014.83 1015.39 1015.95 1016.49 1017.03 1017.56 1018.09 1018.62 1019.14 1019.63 1020.10 1020.54 1020.95 1021.33 1021.69 1022.06 1022.44 1022.84 1023.27 1023.73 1024.19 1024.65 1025.07
1013.62 1013.44 1013.27 1013.08 1012.89 1012.67 1012.42 1012.14 1011.83 1011.49 1011.15 1010.82 1010.54 1010.32 1010.18 1010.13 1010.18 1010.33 1010.56 1010.88 1011.27 1011.72 1012.22 1012.75 1013.32 1013.90 1014.49 1015.08 1015.67 1016.24 1016.81 1017.36 1017.90 1018.41 1018.91 1019.39 1019.86 1020.30 1020.73 1021.14 1021.56 1021.99 1022.43 1022.90 1023.39 1023.89 1024.40 1024.89 1025.34
1013.35 1013.22 1013.11 1013.00 1012.88 1012.71 1012.50 1012.21 1011.86 1011.45 1011.02 1010.59 1010.21 1009.91 1009.70 1009.60 1009.63 1009.76 1010.00 1010.32 1010.71 1011.17 1011.68 1012.23 1012.82 1013.44 1014.07 1014.72 1015.35 1015.98 1016.57 1017.14 1017.68 1018.19 1018.67 1019.14 1019.59 1020.04 1020.50 1020.96 1021.43 1021.91 1022.42 1022.94 1023.47 1024.01 1024.54 1025.05 1025.52
1013.09 1012.95 1012.84 1012.75 1012.64 1012.50 1012.29 1011.99 1011.61 1011.15 1010.66 1010.17 1009.72 1009.36 1009.10 1008.96 1008.95 1009.05 1009.27 1009.57 1009.95 1010.41 1010.93 1011.51 1012.14 1012.82 1013.53 1014.25 1014.96 1015.65 1016.30 1016.89 1017.44 1017.95 1018.42 1018.88 1019.34 1019.80 1020.28 1020.78 1021.29 1021.83 1022.38 1022.94 1023.51 1024.07 1024.61 1025.12 1025.58
1012.86 1012.63 1012.45 1012.31 1012.18 1012.01 1011.79 1011.48 1011.08 1010.61 1010.10 1009.59 1009.12 1008.73 1008.43 1008.26 1008.20 1008.27 1008.43 1008.69 1009.04 1009.47 1009.99 1010.59 1011.27 1012.03 1012.82 1013.64 1014.44 1015.22 1015.93 1016.58 1017.16 1017.68 1018.16 1018.62 1019.08 1019.55 1020.05 1020.58 1021.13 1021.71 1022.29 1022.88 1023.46 1024.03 1024.57 1025.07 1025.53
1012.68 1012.31 1012.00 1011.76 1011.54 1011.33 1011.07 1010.76 1010.37 1009.93 1009.45 1008.96 1008.52 1008.13 1007.83 1007.63 1007.54 1007.54 1007.63 1007.81 1008.09 1008.47 1008.96 1009.57 1010.28 1011.09 1011.97 1012.88 1013.78 1014.65 1015.45 1016.16 1016.79 1017.34 1017.84 1018.31 1018.78 1019.27 1019.78 1020.32 1020.89 1021.49 1022.09 1022.69 1023.28 1023.85 1024.39 1024.89 1025.34
1012.63 1012.07 1011.60 1011.22 1010.90 1010.62 1010.33 1010.01 1009.66 1009.27 1008.86 1008.46 1008.08 1007.74 1007.47 1007.26 1007.13 1007.06 1007.06 1007.14 1007.32 1007.61 1008.02 1008.58 1009.28 1010.11 1011.03 1012.00 1012.99 1013.94 1014.82 1015.60 1016.29 1016.89 1017.42 1017.92 1018.40 1018.90 1019.41 1019.96 1020.54 1021.13 1021.74 1022.34 1022.94 1023.51 1024.06 1024.56 1025.03
1012.78 1012.05 1011.42 1010.89 1010.46 1010.10 1009.78 1009.47 1009.16 1008.85 1008.54 1008.24 1007.97 1007.71 1007.50 1007.31 1007.14 1007.01 1006.91 1006.87 1006.91 1007.06 1007.36 1007.81 1008.43 1009.21 1010.11 1011.10 1012.11 1013.11 1014.04 1014.89 1015.63 1016.29 1016.87 1017.40 1017.91 1018.41 1018.93 1019.48 1020.04 1020.63 1021.23 1021.82 1022.42 1023.00 1023.56 1024.09 1024.58
1013.23 1012.35 1011.59 1010.94 1010.41 1009.98 1009.63 1009.33 1009.07 1008.84 1008.63 1008.45 1008.29 1008.14 1007.99 1007.84 1007.67 1007.48 1007.29 1007.12 1007.01 1006.99 1007.11 1007.40 1007.88 1008.53 1009.34 1010.25 1011.23 1012.22 1013.17 1014.05 1014.84 1015.55 1016.18 1016.75 1017.29 1017.81 1018.34 1018.88 1019.43 1020.00 1020.58 1021.17 1021.76 1022.36 1022.94 1023.50 1024.03
1014.02 1013.06 1012.21 1011.49 1010.89 1010.40 1010.02 1009.71 1009.48 1009.31 1009.20 1009.12 1009.06 1009.01 1008.95 1008.84 1008.68 1008.46 1008.20 1007.91 1007.65 1007.45 1007.37 1007.45 1007.72 1008.17 1008.80 1009.57 1010.44 1011.35 1012.27 1013.14 1013.96 1014.70 1015.38 1016.00 1016.58 1017.13 1017.67 1018.21 1018.75 1019.30 1019.86 1020.44 1021.03 1021.63 1022.23 1022.83 1023.39
1015.16 1014.20 1013.33 1012.57 1011.93 1011.40 1010.97 1010.65 1010.42 1010.27 1010.20 1010.19 1010.21 1010.25 1010.26 1010.21 1010.07 1009.85 1009.53 1009.15 1008.75 1008.38 1008.09 1007.94 1007.96 1008.17 1008.56 1009.12 1009.80 1010.58 1011.39 1012.22 1013.03 1013.79 1014.51 1015.19 1015.82 1016.41 1016.98 1017.52 1018.06 1018.60 1019.14 1019.71 1020.29 1020.89 1021.50 1022.11 1022.71
1016.60 1015.70 1014.87 1014.12 1013.47 1012.89 1012.42 1012.04 1011.77 1011.60 1011.52 1011.53 1011.59 1011.67 1011.73 1011.74 1011.64 1011.43 1011.09 1010.66 1010.16 1009.64 1009.17 1008.79 1008.55 1008.49 1008.61 1008.91 1009.36 1009.94 1010.61 1011.34 1012.10 1012.87 1013.62 1014.34 1015.02 1015.67 1016.28 1016.86 1017.41 1017.95 1018.48 1019.03 1019.59 1020.18 1020.78 1021.40 1022.00
1018.22 1017.44 1016.69 1015.99 1015.32 1014.72 1014.18 1013.72 1013.37 1013.12 1012.99 1012.96 1013.01 1013.10 1013.19 1013.22 1013.17 1012.98 1012.66 1012.21 1011.66 1011.04 1010.42 1009.85 1009.38 1009.06 1008.90 1008.92 1009.11 1009.46 1009.95 1010.54 1011.22 1011.95 1012.71 1013.47 1014.21 1014.92 1015.59 1016.22 1016.80 1017.35 1017.89 1018.42 1018.97 1019.53 1020.12 1020.71 1021.31
1019.87 1019.24 1018.59 1017.94 1017.28 1016.64 1016.03 1015.48 1015.02 1014.66 1014.43 1014.32 1014.31 1014.37 1014.45 1014.51 1014.48 1014.33 1014.04 1013.61 1013.04 1012.38 1011.67 1010.97 1010.31 1009.77 1009.35 1009.11 1009.03 1009.14 1009.41 1009.84 1010.40 1011.06 1011.80 1012.57 1013.36 1014.13 1014.87 1015.56 1016.19 1016.79 1017.34 1017.88 1018.41 1018.95 1019.50 1020.07 1020.63
1021.39 1020.90 1020.35 1019.75 1019.11 1018.43 1017.75 1017.10 1016.53 1016.06 1015.72 1015.51 1015.42 1015.42 1015.46 1015.50 1015.48 1015.36 1015.11 1014.72 1014.18 1013.53 1012.79 1012.01 1011.24 1010.52 1009.91 1009.43 1009.11 1008.96 1009.01 1009.24 1009.64 1010.19 1010.86 1011.62 1012.43 1013.25 1014.05 1014.81 1015.51 1016.17 1016.77 1017.33 1017.87 1018.39 1018.92 1019.44 1019.97
1022.65 1022.27 1021.81 1021.25 1020.61 1019.91 1019.18 1018.46 1017.80 1017.24 1016.81 1016.51 1016.33 1016.26 1016.25 1016.25 1016.22 1016.12 1015.90 1015.55 1015.06 1014.44 1013.72 1012.93 1012.10 1011.28 1010.51 1009.84 1009.30 1008.92 1008.73 1008.74 1008.95 1009.34 1009.90 1010.59 1011.38 1012.22 1013.07 1013.90 1014.68 1015.41 1016.08 1016.69 1017.26 1017.79 1018.31 1018.81 1019.31
Thickness
5694 5698 5699 5695 5681 5671 5679 5698 5715 5724 5731 5741 5745 5744 5741 5739 5738 5735 5750 5757 5756 5753 5751 5750 5748 5747 5746 5744 5743 5742 5741 5739 5738 5736 5735 5734 5732 5731 5730 5728 5727 5725 5724 5723 5722 5720 5719 5718 5717
5687 5690 5686 5678 5665 5660 5676 5698 5712 5724 5733 5739 5740 5738 5735 5737 5744 5746 5749 5752 5753 5750 5748 5746 5745 5744 5743 5741 5740 5739 5737 5736 5734 5733 5731 5730 5728 5727 5725 5724 5723 5721 5719 5718 5717 5715 5714 5713 5712
5679 5681 5671 5662 5658 5663 5681 5703 5713 5725 5733 5735 5731 5731 5731 5733 5741 5744 5748 5750 5748 5746 5744 5743 5741 5740 5739 5738 5736 5735 5734 5732 5730 5729 5727 5726 5724 5723 5721 5719 5718 5716 5715 5714 5712 5711 5710 5709 5707
5668 5664 5658 5652 5657 5672 5689 5704 5712 5718 5725 5729 5725 5720 5727 5737 5741 5743 5745 5745 5743 5741 5740 5739 5738 5736 5735 5734 5733 5731 5729 5728 5726 5725 5723 5722 5720 5718 5717 5715 5713 5712 5710 5709 5708 5706 5705 5704 5703
5655 5649 5644 5644 5656 5674 5690 5701 5709 5712 5716 5720 5719 5713 5718 5731 5739 5740 5740 5739 5738 5736 5735 5734 5733 5732 5731 5730 5728 5727 5725 5724 5722 5720 5719 5717 5716 5714 5712 5710 5708 5707 5706 5704 5703 5702 5700 5699 5698
5640 5638 5632 5637 5654 5674 5687 5698 5702 5706 5709 5713 5712 5708 5712 5723 5729 5731 5734 5733 5733 5731 5730 5729 5728 5727 5726 5725 5724 5722 5721 5719 5717 5716 5714 5713 5711 5709 5707 5705 5703 5702 5701 5700 5698 5697 5695 5694 5692
5631 5630 5630 5640 5651 5665 5683 5693 5694 5698 5702 5707 5710 5702 5706 5715 5722 5725 5726 5726 5726 5725 5724 5723 5722 5722 5721 5720 5719 5717 5716 5714 5713 5711 5710 5708 5706 5704 5702 5700 5698 5697 5696 5695 5693 5691 5690 5688 5686
5629 5625 5628 5636 5647 5661 5681 5689 5693 5695 5698 5707 5708 5700 5701 5711 5717 5719 5718 5718 5717 5717 5717 5717 5716 5716 5715 5714 5713 5712 5710 5709 5708 5706 5704 5702 5700 5699 5697 5695 5693 5692 5691 5689 5688 5686 5684 5683 5681
5624 5615 5620 5635 5646 5660 5676 5680 5687 5695 5695 5697 5702 5706 5710 5711 5712 5711 5709 5708 5708 5709 5710 5710 5710 5710 5709 5708 5707 5706 5704 5703 5702 5700 5699 5697 5695 5693 5691 5690 5688 5687 5685 5684 5682 5681 5679 5677 5675
5610 5609 5624 5642 5651 5659 5668 5673 5679 5683 5683 5685 5691 5698 5703 5703 5705 5703 5702 5702 5702 5702 5703 5704 5704 5704 5703 5702 5700 5699 5698 5697 5696 5695 5693 5691 5690 5688 5686 5684 5683 5681 5680 5678 5677 5675 5673 5672 5670
5606 5611 5626 5639 5649 5656 5660 5665 5673 5674 5673 5680 5685 5689 5692 5694 5697 5697 5697 5698 5698 5698 5697 5697 5698 5697 5697 5696 5694 5693 5692 5691 5690 5689 5688 5686 5684 5682 5680 5679 5677 5675 5674 5672 5671 5669 5668 5666 5664
5601 5612 5622 5631 5641 5647 5651 5658 5661 5667 5674 5682 5686 5688 5687 5687 5689 5692 5692 5692 5692 5692 5692 5691 5692 5691 5691 5690 5689 5688 5687 5686 5684 5683 5682 5681 5678 5676 5674 5673 5671 5670 5668 5667 5665 5663 5662 5660 5659
5594 5605 5615 5624 5631 5638 5643 5647 5651 5657 5668 5674 5676 5678 5679 5680 5682 5684 5687 5687 5686 5685 5685 5686 5686 5686 5685 5684 5683 5682 5681 5680 5679 5678 5676 5675 5673 5671 5669 5667 5665 5664 5662 5661 5659 5657 5656 5654 5653
5590 5597 5604 5613 5620 5628 5632 5636 5641 5648 5657 5662 5665 5666 5669 5672 5674 5676 5678 5679 5680 5681 5680 5680 5680 5680 5679 5678 5677 5676 5675 5674 5673 5672 5670 5669 5668 5666 5663 5661 5659 5658 5656 5655 5653 5652 5650 5648 5646
5582 5584 5590 5602 5610 5617 5623 5621 5631 5642 5647 5650 5653 5656 5659 5663 5667 5670 5673 5675 5675 5675 5675 5675 5675 5674 5673 5672 5671 5670 5669 5668 5667 5666 5665 5663 5661 5660 5658 5655 5653 5652 5650 5649 5647 5645 5644 5642 5640
5568 5568 5573 5592 5601 5608 5608 5606 5625 5633 5637 5639 5642 5646 5650 5654 5658 5662 5666 5668 5669 5669 5669 5669 5669 5668 5667 5666 5665 5663 5662 5662 5661 5660 5658 5657 5655 5654 5651 5649 5647 5645 5644 5642 5640 5639 5636 5634 5632
5550 5554 5565 5580 5593 5598 5597 5601 5616 5624 5629 5629 5633 5637 5641 5645 5649 5653 5657 5660 5662 5663 5663 5662 5662 5661 5660 5659 5658 5656 5655 5654 5654 5653 5652 5650 5648 5647 5645 5643 5641 5639 5637 5635 5633 5631 5629 5626 5625
5543 5550 5560 5569 5583 5587 5587 5594 5606 5614 5620 5621 5624 5628 5633 5638 5643 5646 5649 5652 5655 5655 5656 5655 5654 5653 5653 5651 5649 5648 5647 5646 5646 5646 5645 5643 5642 5640 5638 5636 5634 5632 5630 5627 5625 5623 5621 5619 5617
5545 5548 5553 5565 5577 5578 5579 5586 5596 5604 5609 5611 5615 5620 5625 5630 5635 5639 5642 5644 5646 5646 5647 5648 5647 5646 5646 5644 5642 5640 5638 5637 5637 5637 5637 5636 5635 5633 5632 5629 5627 5625 5623 5620 5618 5616 5613 5610 5609
5535 5540 5545 5556 5568 5569 5567 5575 5586 5594 5602 5608 5611 5614 5618 5622 5626 5629 5633 5635 5637 5639 5640 5640 5640 5640 5640 5639 5637 5635 5632 5629 5629 5629 5628 5628 5628 5626 5624 5623 5620 5618 5616 5613 5611 5608 5604 5601 5599
5525 5532 5539 5546 5553 5558 5558 5561 5573 5584 5593 5600 5605 5610 5613 5618 5620 5622 5624 5626 5628 5630 5632 5634 5633 5633 5633 5632 5629 5626 5623 5621 5619 5619 5619 5619 5619 5618 5617 5615 5613 5611 5609 5606 5603 5601 5598 5592 5589
5518 5530 5535 5539 5537 5536 5546 5541 5560 5573 5581 5589 5595 5599 5605 5610 5613 5616 5618 5618 5621 5623 5625 5626 5625 5625 5625 5624 5623 5621 5619 5615 5614 5613 5612 5611 5611 5610 5609 5608 5606 5604 5601 5599 5596 5593 5590 5586 5581
5512 5522 5526 5530 5528 5526 5533 5532 5548 5563 5572 5582 5588 5592 5597 5602 5606 5609 5611 5613 5614 5615 5616 5617 5617 5617 5616 5616 5616 5615 5612 5609 5607 5605 5605 5604 5603 5602 5601 5600 5599 5596 5594 5591 5588 5585 5582 5579 5574
5507 5510 5513 5514 5513 5513 5526 5527 5540 5555 5573 5581 5583 5585 5589 5593 5597 5600 5602 5604 5604 5606 5607 5608 5608 5608 5607 5607 5607 5607 5605 5602 5600 5598 5597 5595 5594 5593 5593 5592 5591 5589 5586 5583 5581 5578 5574 5571 5567
5494 5493 5495 5498 5499 5509 5524 5526 5539 5558 5569 5576 5577 5578 5580 5584 5587 5589 5592 5593 5595 5596 5598 5599 5600 5599 5599 5599 5598 5599 5598 5597 5595 5592 5591 5588 5587 5585 5585 5584 5582 5580 5578 5575 5572 5569 5566 5563 5559
5486 5488 5489 5495 5498 5504 5516 5520 5534 5549 5559 5566 5569 5570 5571 5574 5577 5580 5584 5586 5587 5588 5589 5590 5592 5591 5591 5591 5590 5589 5589 5588 5587 5586 5584 5582 5581 5579 5578 5576 5574 5572 5570 5567 5564 5561 5558 5554 5550
5480 5481 5488 5486 5487 5495 5506 5514 5526 5539 5546 5552 5556 5558 5561 5564 5567 5570 5574 5576 5579 5580 5581 5583 5583 5583 5582 5582 5581 5580 5580 5580 5579 5577 5576 5574 5573 5571 5570 5568 5566 5563 5561 5559 5556 5553 5549 5546 5542
5479 5480 5477 5477 5483 5491 5501 5507 5515 5524 5533 5541 5544 5546 5550 5554 5556 5559 5563 5566 5568 5570 5571 5573 5574 5574 5573 5573 5573 5572 5571 5571 5570 5569 5567 5566 5564 5563 5561 5559 5557 5555 5553 5550 5547 5544 5541 5537 5533
5468 5471 5471 5470 5476 5485 5489 5500 5514 5518 5527 5530 5533 5536 5539 5542 5546 5549 5552 5554 5557 5559 5560 5562 5563 5563 5563 5563 5563 5563 5562 5561 5560 5559 5559 5557 5556 5554 5553 5551 5549 5546 5544 5541 5539 5536 5532 5528 5524
5462 5465 5465 5465 5466 5471 5477 5490 5504 5506 5512 5518 5521 5524 5528 5531 5535 5537 5539 5542 5544 5547 5549 5551 5552 5553 5553 5553 5553 5553 5553 5552 5551 5550 5549 5549 5547 5546 5544 5542 5540 5538 5535 5533 5530 5527 5523 5520 5516